Temp
60 60 61 61 60 61 61 60 61 60 60 60 61 61 61 61 61 70 69 77 79 72 70 83 85 87 88 84 88 88 71 66 70 73 77 87 85 89 90 85 88 91 90 93 99
60 60 60 60 60 60 61 60 60 60 60 60 60 60 60 60 65 72 75 73 74 73 81 82 81 85 81 81 83 78 71 71 79 81 80 85 86 88 83 82 83 86 92 95 98
59 59 60 60 60 59 59 59 60 60 60 60 60 60 60 62 68 77 72 73 72 73 81 86 86 84 78 82 81 79 71 79 82 85 86 84 85 90 86 79 83 81 85 91 93
59 59 59 59 59 59 59 59 60 60 60 60 59 59 60 65 64 80 73 73 72 79 81 84 82 76 74 74 81 74 80 81 83 85 85 82 87 84 86 86 89 89 89 88 89
58 59 59 58 58 58 58 59 59 59 59 59 59 59 65 69 74 82 74 74 81 82 82 83 79 78 73 77 79 76 79 82 85 85 84 85 82 82 84 90 93 91 88 86 86
58 58 58 58 58 58 58 58 58 58 58 59 59 59 65 65 88 86 86 85 84 86 85 84 81 83 76 76 76 81 81 81 83 82 83 79 80 81 84 90 89 89 85 86 85
58 58 58 58 58 58 58 58 57 58 59 59 60 67 69 72 92 92 89 87 89 86 81 87 85 79 79 74 81 79 72 76 78 79 77 81 74 75 84 87 85 86 87 86 86
57 57 57 57 57 58 58 58 57 58 59 60 61 69 67 91 94 90 90 87 90 89 86 87 86 80 76 79 76 71 71 63 75 78 79 77 65 78 85 83 82 84 86 87 86
57 56 56 57 57 57 57 57 58 60 60 61 64 68 69 82 83 89 90 84 87 87 87 87 83 75 76 68 65 68 60 64 69 80 78 76 68 78 84 82 81 83 84 86 85
57 56 56 56 57 57 56 56 62 59 63 72 76 68 76 77 84 87 90 87 81 81 79 77 75 68 70 66 54 61 64 67 67 75 76 72 70 76 80 80 79 81 81 81 82
56 56 56 56 57 56 59 71 66 65 72 70 73 72 78 84 87 83 87 83 81 76 66 74 66 62 67 70 71 69 65 63 68 75 71 70 70 73 77 78 79 79 78 79 80
56 56 56 56 56 56 60 69 77 78 66 79 79 80 84 84 74 79 87 74 72 65 71 68 62 71 74 72 69 67 62 61 68 73 70 68 67 73 75 75 77 79 79 78 80
55 55 56 56 56 58 73 78 87 85 67 74 81 78 79 81 73 76 82 77 70 67 68 64 69 75 71 68 65 64 61 61 61 68 70 67 63 66 73 75 77 79 81 81 80
55 55 55 55 57 80 79 85 88 85 59 68 72 77 81 81 71 84 85 77 71 65 68 68 74 71 68 64 67 58 69 67 64 60 52 67 50 62 69 71 75 78 78 79 80
55 55 55 54 67 77 82 88 87 78 45 70 75 88 83 74 77 76 86 78 67 67 68 64 67 67 65 65 69 63 70 65 63 59 57 58 52 59 68 66 71 75 77 79 80
55 55 54 69 69 81 88 86 79 57 46 67 75 72 71 74 74 78 76 80 77 68 68 67 75 71 69 72 71 72 65 63 62 58 47 54 54 56 62 67 71 76 77 78 79
54 54 54 74 73 87 85 77 56 50 71 66 67 72 71 69 71 73 70 67 62 56 56 65 67 72 74 66 70 67 58 45 44 45 44 59 55 52 64 71 72 72 74 76 78
53 52 62 76 83 84 77 63 47 62 66 72 69 69 64 69 69 70 67 63 69 66 59 54 52 67 73 66 60 61 57 45 33 38 43 55 46 55 69 73 76 76 75 76 76
52 71 70 77 83 80 67 52 54 63 69 65 66 60 63 68 68 66 63 62 66 66 54 53 53 69 70 70 67 59 53 61 47 47 39 48 55 66 70 69 72 72 73 73 74
61 70 74 82 81 73 60 51 61 70 70 67 56 62 56 61 61 62 61 67 64 69 68 59 49 63 66 70 67 60 65 47 49 32 31 43 45 49 58 61 67 69 70 71 74
63 67 76 83 77 66 52 59 66 73 71 63 59 58 59 57 59 58 58 65 67 66 68 63 56 55 61 58 57 56 49 46 48 49 37 35 43 59 58 59 63 68 71 72 73
65 61 78 80 61 65 59 67 62 68 72 67 65 62 59 59 56 56 56 61 69 67 59 62 53 46 51 62 65 61 52 47 36 34 39 39 40 62 60 61 55 57 68 73 75
60 66 79 75 54 59 65 66 67 66 65 64 61 64 64 57 51 56 58 66 68 65 59 59 50 41 45 54 58 44 47 49 45 42 34 31 41 65 59 58 58 58 61 64 74
62 59 70 70 70 61 58 59 60 68 66 66 62 63 59 55 59 54 56 63 67 66 58 58 50 45 37 43 51 46 49 47 40 33 36 41 45 55 58 57 54 52 62 60 58
63 61 64 56 61 59 60 60 58 57 66 66 60 59 56 51 53 52 57 59 63 63 61 55 43 48 51 53 52 51 51 52 45 46 40 47 47 56 61 62 60 59 60 62 57
59 58 61 57 61 59 56 56 57 60 59 56 55 58 57 52 53 49 53 53 52 58 56 57 45 50 46 52 52 49 53 54 54 55 55 54 53 65 67 68 67 61 62 61 66
64 65 59 52 56 56 56 57 58 61 61 63 59 56 54 56 59 60 59 57 55 52 51 50 48 43 38 48 48 42 51 52 52 55 54 48 57 63 60 58 60 63 64 58 61
MSLP
1019.20 1018.92 1018.56 1018.18 1017.89 1017.58 1017.30 1017.03 1016.73 1016.50 1016.23 1015.90 1015.54 1015.25 1015.02 1014.72 1014.07 1012.96 1011.50 1009.85 1009.64 1009.96 1009.96 1009.30 1008.40 1007.49 1007.18 1006.67 1005.99 1005.55 1004.75 1003.58 1003.40 1002.64 1001.67 1001.05 1000.43 1000.90 1001.84 1002.31 1002.21 1002.54 1002.13 1002.13 1001.82
1019.30 1018.86 1018.40 1018.06 1017.76 1017.48 1017.16 1016.90 1016.62 1016.31 1015.97 1015.64 1015.33 1015.05 1014.91 1014.64 1013.57 1011.02 1009.70 1009.44 1009.51 1009.68 1009.23 1008.12 1007.20 1006.68 1006.20 1005.72 1005.39 1004.80 1003.99 1003.30 1003.02 1002.33 1001.41 1000.87 1000.44 1000.40 1001.35 1001.98 1002.50 1002.60 1002.45 1002.73 1002.46
1019.16 1018.80 1018.42 1018.02 1017.65 1017.34 1017.04 1016.74 1016.36 1016.03 1015.75 1015.46 1015.15 1014.89 1014.72 1014.35 1011.84 1008.81 1009.39 1009.27 1009.60 1009.72 1009.07 1007.52 1006.72 1005.94 1005.35 1004.93 1004.46 1004.06 1002.93 1002.85 1002.18 1001.67 1001.45 1000.95 1000.58 1000.35 1000.20 1000.75 1001.81 1002.56 1002.75 1002.56 1002.96
1019.10 1018.70 1018.32 1017.94 1017.56 1017.20 1016.87 1016.56 1016.18 1015.84 1015.54 1015.30 1015.07 1014.83 1014.51 1013.99 1010.06 1008.65 1008.94 1009.30 1009.62 1009.38 1008.56 1006.91 1006.48 1005.92 1005.19 1004.44 1004.01 1003.30 1002.62 1002.36 1001.90 1001.67 1001.31 1000.89 1000.61 1000.37 1000.07 999.97 1000.72 1001.66 1002.61 1002.57 1003.10
1019.04 1018.56 1018.12 1017.76 1017.44 1017.09 1016.74 1016.35 1015.97 1015.64 1015.40 1015.17 1014.99 1014.86 1013.83 1011.63 1008.44 1008.65 1008.80 1009.24 1009.23 1008.66 1007.48 1006.22 1005.74 1005.19 1004.64 1004.05 1003.56 1002.73 1002.33 1002.04 1001.60 1001.44 1001.34 1001.41 1000.97 1000.68 1000.08 999.98 1000.60 1001.43 1001.94 1002.92 1003.37
1018.78 1018.37 1017.93 1017.55 1017.19 1016.86 1016.49 1016.09 1015.68 1015.35 1015.16 1015.02 1014.88 1014.89 1013.57 1009.82 1007.20 1008.26 1008.16 1008.39 1008.18 1007.28 1006.49 1006.35 1005.43 1005.05 1004.93 1004.07 1003.34 1002.60 1002.10 1001.67 1001.54 1001.37 1001.32 1001.34 1001.04 1001.40 1000.39 1000.48 1000.62 1000.99 1001.78 1002.36 1003.10
1018.50 1018.08 1017.68 1017.31 1016.96 1016.56 1016.16 1015.76 1015.39 1015.10 1014.82 1014.70 1014.71 1014.24 1011.83 1008.51 1006.65 1006.87 1007.40 1007.38 1006.95 1006.94 1006.58 1005.98 1006.00 1005.86 1005.05 1004.30 1003.76 1003.23 1002.86 1002.38 1001.72 1001.69 1001.60 1001.62 1000.68 1000.60 1000.93 1000.72 1000.61 1000.77 1000.95 1001.44 1002.12
1018.28 1017.84 1017.42 1016.99 1016.55 1016.12 1015.73 1015.35 1014.98 1014.64 1014.42 1014.37 1014.45 1013.48 1009.95 1006.62 1006.64 1006.77 1006.81 1006.77 1006.73 1006.76 1006.74 1006.60 1006.46 1006.16 1005.67 1005.09 1004.24 1003.61 1003.16 1002.20 1001.54 1001.25 1001.06 1001.56 999.92 1000.40 1000.58 1000.58 1000.38 1000.46 1000.63 1000.81 1001.40
1018.02 1017.56 1017.10 1016.68 1016.28 1015.82 1015.39 1014.96 1014.44 1014.00 1014.00 1014.08 1013.77 1012.08 1008.07 1006.90 1006.71 1006.52 1006.58 1006.22 1005.89 1006.38 1006.49 1006.49 1006.49 1006.17 1005.58 1004.85 1003.99 1003.19 1002.29 1001.43 1000.50 999.88 999.75 999.85 999.73 1000.14 1000.17 999.99 999.68 999.73 1000.04 1000.41 1000.91
1017.82 1017.32 1016.83 1016.34 1015.89 1015.52 1015.07 1014.68 1014.01 1013.85 1013.67 1013.00 1011.65 1010.37 1007.41 1005.98 1006.13 1006.23 1006.17 1006.21 1006.20 1006.15 1005.98 1006.05 1005.93 1005.52 1004.90 1004.36 1003.16 1002.14 1001.03 1000.37 999.76 999.71 999.21 999.68 999.78 1000.09 999.98 999.89 999.58 999.48 1000.23 1000.71 1001.07
1017.60 1017.09 1016.57 1016.06 1015.58 1015.31 1014.60 1013.46 1013.53 1012.51 1011.26 1009.36 1008.27 1007.29 1006.00 1005.86 1006.01 1006.01 1005.84 1006.02 1006.30 1006.18 1005.74 1005.18 1004.92 1004.10 1003.57 1003.03 1002.58 1002.15 1001.76 1001.23 1000.71 1000.16 999.94 999.70 999.60 999.99 1000.01 999.66 999.22 999.52 1000.21 1000.71 1001.21
1017.44 1016.80 1016.24 1015.75 1015.37 1015.19 1014.95 1012.19 1010.08 1009.91 1008.70 1007.32 1006.76 1006.06 1005.66 1005.77 1005.52 1005.50 1005.58 1005.82 1005.72 1005.57 1004.95 1004.60 1003.71 1003.44 1003.22 1003.00 1002.54 1002.60 1002.60 1002.15 1001.57 1001.04 1000.76 1000.17 999.71 999.82 999.99 999.83 999.37 999.00 999.14 999.76 1000.51
1017.31 1016.64 1016.00 1015.45 1015.10 1014.64 1012.29 1010.27 1009.52 1009.00 1008.17 1005.53 1005.09 1005.14 1005.18 1005.57 1005.17 1004.58 1004.80 1005.13 1005.26 1004.90 1004.38 1003.75 1003.05 1002.62 1002.61 1002.73 1002.50 1002.76 1002.76 1002.40 1001.90 1001.50 1001.01 1000.54 999.96 999.98 999.77 999.51 999.12 998.68 998.65 999.02 999.66
1017.06 1016.39 1015.76 1015.28 1015.11 1011.30 1009.98 1009.68 1009.08 1009.12 1007.70 1004.34 1004.42 1004.15 1004.25 1004.72 1004.50 1004.52 1004.28 1004.73 1004.71 1004.42 1004.00 1003.33 1002.73 1002.26 1002.37 1002.64 1002.84 1002.49 1002.53 1002.25 1002.15 1001.96 1001.34 1001.34 999.82 999.54 998.78 997.92 997.43 997.21 997.99 998.38 999.06
1016.91 1016.21 1015.58 1015.46 1013.86 1010.74 1009.87 1009.50 1009.38 1009.27 1006.44 1004.17 1003.28 1003.61 1003.65 1004.25 1003.30 1003.64 1004.02 1004.31 1004.39 1004.15 1004.03 1003.06 1002.62 1002.30 1001.89 1002.53 1002.68 1002.42 1002.54 1002.81 1002.93 1002.65 1002.50 1001.58 1000.92 998.90 998.78 997.63 997.07 996.86 997.26 997.84 998.65
1016.75 1016.11 1015.56 1013.48 1013.46 1010.71 1009.63 1009.67 1009.62 1008.45 1004.82 1002.97 1003.04 1003.37 1003.64 1003.54 1003.53 1003.50 1003.80 1004.30 1004.49 1004.28 1003.92 1003.27 1002.85 1002.40 1001.77 1001.74 1002.06 1002.41 1002.88 1003.42 1003.41 1003.11 1002.38 1001.28 1000.79 998.70 997.74 996.59 995.88 995.65 996.76 997.64 998.73
1016.56 1015.85 1015.69 1013.29 1011.45 1010.25 1010.23 1009.66 1008.77 1006.40 1003.53 1002.69 1002.69 1002.83 1002.89 1002.82 1002.56 1002.46 1002.84 1003.12 1003.40 1003.38 1002.90 1002.20 1001.46 1001.19 1001.20 1001.08 1001.49 1002.14 1003.07 1002.95 1002.92 1002.40 1001.21 1000.66 999.42 999.63 998.02 996.68 996.50 996.23 997.29 998.25 999.14
1015.78 1015.30 1013.44 1012.60 1011.53 1010.76 1010.60 1009.76 1007.93 1005.03 1003.44 1003.27 1003.49 1003.40 1003.09 1002.84 1002.45 1002.32 1002.28 1002.23 1002.70 1002.89 1002.58 1001.94 1001.02 1000.58 1000.38 1000.64 1001.34 1001.77 1002.94 1003.34 1003.24 1002.94 1002.26 1001.65 999.60 998.68 997.94 997.15 996.67 996.91 997.74 998.52 999.30
1014.80 1013.05 1012.52 1011.38 1010.96 1011.01 1010.66 1008.96 1006.65 1005.00 1004.38 1004.28 1004.23 1003.89 1002.90 1002.21 1002.15 1002.36 1002.85 1002.83 1002.79 1003.10 1003.04 1002.33 1001.36 1001.25 1001.05 1001.34 1002.03 1002.41 1002.54 1003.27 1003.64 1004.30 1004.56 1002.45 1000.30 998.47 997.66 997.31 997.31 997.61 998.21 998.67 999.15
1015.26 1012.42 1010.61 1010.00 1010.68 1010.99 1010.36 1008.30 1006.47 1005.25 1004.73 1005.10 1004.94 1004.66 1003.82 1003.40 1003.07 1002.76 1002.91 1002.74 1002.96 1003.16 1003.52 1003.34 1002.38 1002.39 1001.76 1001.66 1002.16 1003.08 1003.23 1004.17 1004.54 1005.00 1004.42 1002.98 1001.60 999.68 998.84 998.06 998.00 998.07 998.60 998.99 999.48
1014.88 1011.56 1010.36 1010.21 1010.80 1010.48 1009.17 1007.33 1005.88 1005.25 1005.41 1005.84 1005.54 1005.24 1005.04 1004.84 1004.55 1003.94 1003.54 1003.42 1003.44 1003.38 1003.45 1003.82 1003.55 1002.94 1002.88 1002.57 1002.20 1002.75 1004.03 1005.43 1006.07 1005.11 1004.34 1003.19 1001.44 1000.54 1000.08 999.95 1000.20 999.02 998.89 999.20 999.45
1014.39 1011.30 1010.02 1010.28 1010.32 1008.90 1007.89 1006.32 1006.15 1005.77 1005.63 1005.78 1005.78 1005.64 1005.53 1005.53 1005.23 1004.76 1004.26 1003.87 1003.87 1003.71 1003.51 1004.43 1004.46 1003.92 1003.79 1003.50 1003.24 1003.51 1004.31 1006.55 1007.41 1007.15 1006.08 1004.40 1001.95 1001.17 1001.47 1001.56 1002.14 1001.75 1000.33 1000.08 999.16
1015.08 1011.58 1009.79 1010.01 1009.48 1008.16 1007.53 1007.02 1006.81 1006.02 1005.87 1006.00 1006.09 1006.03 1005.91 1005.96 1005.74 1005.28 1004.77 1004.59 1004.40 1004.04 1004.19 1005.01 1005.28 1004.60 1004.06 1004.00 1003.96 1005.74 1006.54 1006.92 1007.84 1007.62 1006.76 1005.58 1002.38 1001.14 1001.74 1002.28 1003.07 1002.83 1001.38 1001.56 999.56
1015.54 1011.51 1009.37 1009.50 1009.02 1008.96 1008.32 1007.80 1007.10 1006.87 1006.21 1006.32 1006.55 1006.66 1006.64 1006.37 1006.14 1005.50 1005.00 1004.60 1004.44 1004.27 1004.89 1005.77 1006.21 1006.20 1005.69 1005.38 1005.11 1005.06 1005.62 1006.30 1007.69 1006.68 1005.62 1004.44 1002.62 1001.12 1000.80 1001.53 1002.71 1002.68 1002.54 1002.15 1001.41
1015.30 1012.32 1011.58 1010.31 1009.44 1009.44 1009.15 1008.47 1007.52 1006.78 1006.55 1006.60 1006.69 1006.82 1006.70 1006.36 1006.14 1005.88 1005.62 1005.26 1005.07 1004.92 1005.37 1006.26 1006.56 1006.45 1005.61 1005.26 1004.90 1004.45 1004.18 1004.08 1004.53 1004.10 1003.86 1002.17 1001.64 1000.12 999.76 1000.00 1000.72 1001.22 1001.35 1001.60 1001.98
1015.26 1014.29 1013.04 1012.13 1010.98 1010.00 1009.28 1008.68 1007.83 1007.11 1007.38 1007.38 1007.28 1007.24 1007.33 1007.08 1006.99 1006.64 1006.58 1006.34 1006.00 1005.82 1005.77 1005.98 1005.83 1006.08 1005.48 1005.26 1004.67 1003.61 1003.00 1002.54 1002.08 1001.52 1000.84 1000.25 999.25 998.92 998.64 998.97 999.07 999.84 1000.08 1000.63 1000.14
1016.30 1015.44 1014.77 1013.02 1011.58 1010.41 1009.47 1008.90 1008.40 1007.98 1007.97 1007.74 1007.59 1007.48 1007.45 1007.50 1007.46 1007.15 1007.10 1007.01 1006.92 1006.78 1006.57 1006.64 1006.65 1006.54 1005.91 1005.59 1004.52 1003.11 1001.90 1001.87 1001.67 1001.27 1000.84 1000.13 999.22 998.87 999.14 999.66 999.61 999.38 999.85 1000.04 999.87
Wind_Speed
16 16 15 15 14 14 14 15 14 14 14 15 15 15 16 16 19 15 11 2 1 3 3 11 14 14 16 17 19 20 16 16 23 23 20 20 17 16 15 10 14 12 21 22 7
16 16 16 15 15 14 14 15 15 14 14 15 15 16 15 16 17 18 5 7 6 4 9 11 12 14 14 19 17 19 17 24 22 22 20 21 20 18 18 15 14 19 18 18 11
17 17 16 16 16 15 15 15 15 15 14 14 15 16 16 16 12 5 8 8 3 6 11 11 11 13 16 16 19 21 22 22 22 21 22 23 24 23 16 15 13 20 23 19 17
18 18 17 16 16 15 14 14 15 15 14 14 15 16 16 10 4 10 11 8 6 10 16 11 9 13 14 16 20 24 24 24 23 23 23 23 23 22 24 14 19 20 21 24 19
19 19 17 17 16 15 14 14 14 14 13 13 13 14 11 10 10 13 12 9 9 13 16 10 9 12 15 17 19 22 22 22 22 22 24 22 25 25 23 21 16 17 15 15 19
18 19 18 17 16 16 15 14 12 12 12 12 12 11 8 13 16 14 11 11 13 10 11 8 10 9 11 15 17 18 18 19 21 20 21 23 20 22 26 21 17 18 17 15 14
17 17 18 19 18 17 16 14 12 13 13 11 9 8 12 17 3 13 10 9 11 5 9 9 6 10 11 13 12 15 18 19 21 16 21 21 23 25 23 23 21 22 20 16 15
17 16 18 19 19 18 18 16 15 15 14 11 8 9 9 7 11 8 9 10 9 7 9 10 10 13 13 14 17 16 16 17 19 23 24 21 25 22 21 20 23 23 20 19 13
19 17 17 18 18 18 18 17 18 12 11 9 8 10 13 5 9 9 11 11 10 8 9 8 9 13 14 14 14 14 16 21 22 22 20 24 25 22 20 20 20 18 15 17 10
20 18 17 17 16 17 18 18 10 3 7 9 12 10 10 12 9 15 8 8 7 10 11 11 11 12 13 12 13 18 19 15 17 14 9 14 18 17 21 18 20 15 12 11 13
21 19 17 16 15 12 12 6 7 8 14 14 2 12 4 1 1 7 8 10 9 11 12 14 13 13 16 16 19 18 18 17 20 19 15 16 16 13 17 18 17 13 14 13 13
22 20 18 17 15 10 7 8 9 8 11 19 21 15 13 3 8 13 13 10 12 13 14 15 14 15 16 18 17 14 17 19 20 20 19 20 21 17 15 20 20 18 16 16 16
21 20 18 16 15 7 11 7 8 10 9 16 14 13 12 12 13 13 15 14 14 16 16 16 16 18 11 14 17 14 18 18 20 19 22 21 19 18 22 23 23 23 18 14 13
22 19 16 14 4 11 9 5 9 6 7 11 9 9 12 10 15 16 10 11 14 19 18 17 17 13 15 12 18 16 18 17 18 17 16 14 17 20 20 18 17 12 16 15 18
24 21 17 5 12 9 9 9 9 4 7 8 12 8 8 13 3 11 10 11 16 17 17 19 17 17 17 14 18 17 15 17 20 18 19 22 15 17 20 22 21 19 17 12 7
25 22 20 5 7 13 9 8 5 7 9 8 7 8 11 14 14 11 10 12 12 17 18 22 22 23 23 18 17 16 14 16 21 15 17 24 21 21 19 21 17 13 9 8 10
25 24 13 10 9 12 10 8 8 8 2 4 4 7 11 13 15 15 16 17 15 18 19 22 23 24 21 25 23 17 18 13 16 14 17 23 21 11 21 5 8 11 9 6 7
28 21 9 9 11 9 7 9 10 12 16 7 4 11 16 17 17 17 17 16 15 18 18 19 20 18 18 13 18 18 17 10 14 16 17 24 13 10 12 19 12 9 15 14 12
31 3 5 11 9 4 7 9 10 15 13 11 14 17 19 16 17 7 13 16 16 15 18 19 24 22 20 12 13 15 17 18 12 10 13 17 28 24 17 17 8 12 9 8 7
9 9 10 9 3 4 7 12 21 20 7 11 17 14 17 16 17 12 12 8 12 12 11 16 20 17 20 18 9 19 16 16 7 6 11 16 17 13 15 13 18 14 12 11 9
5 6 5 2 3 6 9 14 17 15 13 10 15 17 19 18 20 20 19 19 17 20 13 15 17 17 17 17 21 12 14 8 16 15 16 16 15 6 2 9 8 13 11 11 13
6 7 7 4 6 8 13 11 9 16 14 13 17 18 18 18 18 19 19 19 16 20 13 16 12 15 17 21 24 19 14 19 6 6 12 8 19 12 5 5 11 28 12 14 10
8 10 5 4 6 9 12 13 17 15 11 14 16 18 16 18 19 18 16 17 20 18 11 9 7 13 16 19 4 5 17 13 9 4 9 9 15 11 12 4 5 17 22 23 13
7 6 4 7 9 8 13 14 15 19 16 8 13 13 16 18 17 17 20 17 17 19 12 4 10 17 14 21 21 22 16 12 10 4 11 15 19 21 7 8 12 14 21 17 22
7 7 4 8 11 17 15 17 18 18 13 13 15 17 18 18 18 18 19 19 18 19 1 3 13 17 20 21 22 24 26 24 22 23 18 21 21 23 18 14 17 16 15 15 20
9 7 10 13 14 14 12 15 20 13 16 18 17 16 16 17 17 20 20 17 17 16 17 14 16 18 22 19 23 24 24 25 25 24 23 21 24 20 18 19 18 21 21 19 22
10 11 7 8 13 12 11 14 20 19 13 13 19 19 15 17 18 18 17 16 17 17 15 14 13 14 16 18 19 20 20 17 20 21 17 19 22 16 18 16 15 6 9 9 16
Wind_Direction
340 337 334 333 334 331 329 326 322 318 315 313 313 312 315 318 304 255 250 63 50 52 308 256 273 234 234 243 247 241 245 249 252 256 262 269 266 183 185 221 237 257 264 314 65
338 334 332 331 329 328 324 322 319 314 312 311 310 311 315 320 298 272 123 132 97 40 249 225 233 228 235 231 233 235 241 243 249 258 270 272 272 263 176 190 220 232 257 278 326
336 333 330 328 327 326 324 320 315 312 310 309 308 311 317 315 279 107 160 118 179 254 260 285 284 277 240 241 236 230 245 254 253 258 261 264 274 279 249 199 208 211 254 257 284
335 331 327 325 321 319 316 314 311 310 307 307 307 312 313 288 312 123 144 142 206 254 263 244 242 247 247 245 242 251 246 251 257 263 272 277 281 273 271 252 194 205 218 250 252
330 329 326 323 318 314 311 308 304 301 301 301 306 318 309 238 261 138 141 168 228 240 251 260 259 244 248 249 251 247 254 256 266 262 264 273 272 281 277 273 279 208 191 219 255
332 330 325 321 315 311 307 301 293 287 287 291 299 308 250 264 127 147 183 177 241 239 273 281 285 345 315 287 279 273 267 270 264 270 274 267 261 269 268 267 261 266 190 203 235
332 330 326 322 316 310 303 294 288 280 273 270 277 274 268 251 288 161 205 223 249 266 286 256 282 297 294 289 270 275 269 268 269 261 264 263 258 245 259 266 265 255 258 216 205
331 328 324 320 316 312 308 303 293 277 262 253 255 261 263 266 253 216 229 233 253 252 265 298 298 281 280 287 285 270 264 265 257 246 242 241 256 255 252 252 254 257 258 254 213
330 326 322 319 316 312 310 306 297 279 245 230 234 220 262 126 224 245 237 246 227 223 257 269 284 273 275 262 260 241 254 254 255 242 237 227 239 249 251 260 263 234 264 247 224
333 326 320 316 313 313 311 297 310 213 215 200 261 261 254 251 184 233 228 252 288 270 254 240 250 255 246 243 259 270 262 273 263 254 201 239 264 275 273 267 268 224 246 264 272
335 329 320 312 307 313 316 227 207 201 229 249 216 243 284 255 350 228 239 226 242 251 265 260 239 249 254 254 255 276 295 300 293 299 310 275 247 260 287 281 257 225 231 232 244
335 331 324 314 307 311 283 257 29 310 292 247 233 252 256 286 263 211 228 224 230 247 258 239 251 254 262 277 287 296 286 279 279 278 277 275 270 272 272 275 274 266 221 211 216
334 331 326 320 317 273 233 344 307 307 276 285 213 232 228 216 240 259 194 228 244 264 254 267 280 292 296 284 278 259 264 274 281 291 291 292 282 275 266 257 254 256 258 247 223
334 333 330 325 292 246 242 354 311 13 275 222 191 232 210 202 244 234 256 232 242 247 264 275 291 284 300 272 273 273 275 282 292 289 283 281 282 276 284 285 243 262 230 243 228
334 333 329 307 315 295 2 316 339 261 282 150 157 92 194 211 357 194 227 231 252 273 280 276 271 273 251 251 278 271 291 302 297 288 286 272 268 272 266 260 251 242 208 220 224
332 331 331 224 225 262 326 334 261 240 256 159 153 213 222 220 247 260 190 221 263 281 282 281 279 279 276 268 247 266 289 283 276 270 256 262 255 261 255 255 271 215 169 183 186
327 321 312 307 290 339 327 275 248 245 118 233 204 229 247 258 259 229 231 239 247 259 259 265 259 244 247 256 252 238 259 259 258 242 251 253 261 341 293 245 347 132 150 168 173
320 311 239 245 285 318 295 258 255 285 311 43 339 292 272 282 275 270 269 262 258 265 264 273 272 274 290 315 248 278 246 252 264 278 289 300 286 260 271 319 170 150 174 172 195
313 199 236 234 238 292 274 243 249 280 342 338 326 290 276 269 251 270 283 290 289 279 283 300 294 304 293 309 298 286 272 287 308 319 290 282 285 284 249 226 235 171 189 206 183
316 288 242 157 163 250 257 257 288 292 336 310 295 301 292 297 308 297 266 269 297 298 274 283 293 292 298 302 236 263 263 250 227 249 261 263 270 321 334 327 213 190 200 198 198
274 263 107 200 165 239 246 266 293 341 345 313 299 298 302 306 304 299 295 296 295 293 293 280 279 287 302 278 275 304 310 332 318 278 262 272 272 195 272 1 309 237 205 193 211
301 283 130 179 252 244 244 288 343 311 299 286 285 283 277 287 286 287 293 299 308 291 281 295 316 291 269 274 292 309 243 264 247 308 277 259 270 288 134 339 26 313 280 266 211
297 289 163 209 259 301 321 317 322 308 319 318 304 300 303 297 290 288 286 301 305 298 320 354 238 290 291 287 292 44 306 312 295 330 262 287 281 276 117 141 323 308 307 316 254
281 301 183 208 253 264 295 313 305 315 300 282 293 304 300 284 277 284 288 284 296 295 147 157 264 271 278 278 295 296 253 225 218 197 253 256 286 291 261 224 215 206 275 307 301
254 297 9 302 323 329 312 298 300 297 324 325 313 300 290 298 301 297 300 308 303 303 200 244 272 273 282 288 286 289 282 276 226 231 246 262 259 268 274 263 224 210 234 264 234
295 340 338 299 291 298 291 292 297 310 335 312 300 309 309 292 299 305 305 301 297 310 310 308 292 284 280 294 292 287 292 289 277 275 276 261 267 279 272 263 259 217 239 232 251
342 333 281 285 296 293 295 305 313 318 310 303 310 310 289 297 307 305 292 284 281 280 279 281 291 294 286 294 297 291 279 273 292 294 282 279 288 298 313 333 338 307 289 330 313